{"data":{"norad_id":58584,"epoch":"2026-05-24T08:00:11.916000Z","epoch_age_seconds":132869,"freshness":"FRESH","line1":"1 58584U 23198A   26144.33347125  .00000154  00000+0  00000+0 0  9996","line2":"2 58584  63.2201 157.0242 6895752 267.5045  18.7884  2.00593321 17849","mean_motion":2.00593321,"eccentricity":0.6895752,"inclination_deg":63.2201,"raan_deg":157.0242,"arg_perigee_deg":267.5045,"mean_anomaly_deg":18.7884,"bstar":0,"rev_number":1784,"period_min":717.87036219416,"perigee_km":1866.0393335168,"apogee_km":38493.135776972,"semimajor_km":26557.724555244,"source":"CELESTRAK","updated_at":"2026-05-25T13:38:12.256815Z"}}